Weather Roundup
Issued by NWS Springfield, MO

Home | Current Version | Previous Version | Text Only | Print | Product List | Glossary Off
Versions: 1 2 3 4 5 6 7 8 9 10 11 12 13 14 15 16 17 18 19 20 21 22 23 24 25 26 27 28 29 30 31 32 33 34 35 36 37 38 39 40 41 42 43 44 45 46 47 48 49 50

000
NZUS99 KSGF 222107
HRRSGF

HOURLY WEATHER
NATIONAL WEATHER SERVICE SPRINGFIELD MO
400 PM CDT TUE MAY 22 2018

......SGF CWA......

CITY           SKY/WX    TMP DP  RH WIND       PRES   REMARKS
SPRINGFIELD    PTSUNNY   84  65  52 E6        30.01F
JOPLIN         MOSUNNY   86  68  54 N6        30.00F
WEST PLAINS    SUNNY     83  67  58 CALM      30.03F
ROLLA          SUNNY     83  61  47 VRB6      30.05F
OSAGE BEACH    SUNNY     83  61  47 E6        30.04
BRANSON        MOSUNNY   84  66  54 SE7       30.02F

......SURROUNDING SGF CWA......

CITY           SKY/WX    TMP DP  RH WIND       PRES   REMARKS
CHANUTE        CLOUDY    84  69  60 S9        30.00F
PARSONS        MOSUNNY   85  68  56 VRB6      30.00F
COFFEYVILLE    CLOUDY    85  68  56 CALM      29.98F
EMPORIA        MOSUNNY   84  66  54 SE10      29.98F
GROVE OK       SUNNY     88  63  42 CALM      29.99F
ROGERS AR      SUNNY     85  65  51 E9        30.01F
SILOAM SPRINGS SUNNY     86  67  52 N6        30.00F
HARRISON AR    MOSUNNY   85  66  53 E10       30.01F
NEAR YELLVILLE TSTM      79  67  66 VRB3      30.01R

......KANSAS AND MISSOURI......

CITY           SKY/WX    TMP DP  RH WIND       PRES   REMARKS
KANSAS CTY INT MOSUNNY   84  63  49 SE10      30.00F
DOWNTOWN KC    MOSUNNY   86  61  42 VRB5      29.99F
COLUMBIA       SUNNY     84  61  45 NE6       30.03F
SEDALIA        SUNNY     83  64  52 SE7       30.04F
ST JOSEPH      SUNNY     86  64  47 SE14      29.97F
ST LOUIS       MOSUNNY   83  63  50 N9        30.03F
SPIRIT OF STL  MOSUNNY   84  62  47 MISG      30.02F
KIRKSVILLE     CLOUDY    83  62  49 VRB3      30.02F
WICHITA        PTSUNNY   85  66  53 S14       29.96F
TOPEKA         MOSUNNY   86  69  56 SE9       29.98F HX  90
OLATHE         MOSUNNY   82  65  56 SE8       30.01F

......TENNESSEE......

CITY           SKY/WX    TMP DP  RH WIND       PRES   REMARKS
MEMPHIS        TSTM      79  70  74 SE15G21   29.98S
NASHVILLE      PTSUNNY   83  66  56 SE7       30.01F

......ARKANSAS.......

CITY           SKY/WX    TMP DP  RH WIND       PRES   REMARKS
FAYETTEVILLE   MOSUNNY   87  58  37 E6        29.99F
FT SMITH       CLOUDY    79  68  69 SW3       29.97F
LITTLE ROCK    CLOUDY    74  71  91 S6        29.98F

......OKLAHOMA.......

CITY           SKY/WX    TMP DP  RH WIND       PRES   REMARKS
TULSA          PTSUNNY   88  66  48 SE10      29.94F HX  90
PONCA CITY     MOSUNNY   87  64  46 SE9       29.96F
MCALESTER      MOSUNNY   85  67  54 CALM      29.97F
OKLAHOMA CITY  MOSUNNY   85  65  51 S10       29.97F

......IOWA............

CITY           SKY/WX    TMP DP  RH WIND       PRES   REMARKS
DES MOINES     CLOUDY    76  63  64 S5        30.01S
QUAD CITIES    FAIR      77  61  57 N6        30.03F

......ILLINOIS........

CITY           SKY/WX    TMP DP  RH WIND       PRES   REMARKS
QUINCY         MOSUNNY   82  60  47 N7        30.03F
CHICAGO        CLOUDY    65  55  70 E7        30.04F





USA.gov is the U.S. government's official web portal to all federal, state and local government web resources and services.